Погода в Ольгине

Куба     20°53′19″N   76°15′25″W
темп.,
°C
ветер,
м/с
пор.,
м/с
влажн.,
%
обл.,
%
осадки,
мм/ч
давл.,
гПа
погр.,
м
18 мая, вт
вт1823:00+24всв388854 0.8 1016280
02:00+23всв279397 3.6 1015226
05:00+23в2695100 1.3 1015166
08:00+25в368485 1.3 1016393
11:00+30в335499 0.1 10161646
14:00+31св755396 0.6 10151506
17:00+27св7868100 1.6 1013732
20:00+24вюв3783100 6.6 1015229
19 мая, ср
ср1923:00+23в3791100 4.8 1016329
02:00+23вюв1590100 4.8 1015232
05:00+22вюв129589 2.0 101456
08:00+23вюв249193 5.8 1016173
11:00+27всв566999 2.4 1016873
14:00+27всв667099 2.6 1016973
17:00+24всв6979100 0.0 1014633
20:00+24в598396 0.2 1016585
20 мая, чт
чт2023:00+23всв41088100 2.3 1016456
02:00+23всв4108794 2.3 1015481
05:00+23в3986100 0.0 1014392
08:00+23в4108895 2.1 1016451
11:00+24всв4988100 3.4 1016497
14:00+25всв61085100 4.1 1015659
17:00+24св71186100 3.1 1015646
20:00+23всв61289100 3.9 1016604
21 мая, пт
пт2123:00+23всв5108893 0.1 1017504
02:00+22всв399163 0.1 1016238
05:00+22всв41091100 0.1 1015377
08:00+24всв51087100 1.8 1017724
11:00+27всв897380 1.3 10181127
14:00+27всв897290 2.9 10171198
17:00+26всв8117480 1.5 10161093
20:00+24всв6127897 1.8 1017717
22 мая, сб
сб2223:00+24всв6117872 0.1 1018648
02:00+24всв5107985 0.3 1016606
05:00+23всв6108176 0.1 1016567
08:00+25всв697573 0.2 1017951
11:00+27всв686484 0.1 10181265
14:00+28всв776093 0.3 10161358
17:00+27всв786370 0.1 10151241
20:00+25всв51074100 0.1 1016589